Wetbulb
39.99 45.93 49.44 50.29 50.32 49.71 49.44 47.27 47.26 47.39 46.83 46.10 45.83 45.38 44.96 44.37 44.03 44.51 45.81 46.61 47.81 48.29 49.13 49.61 50.50 50.53 50.85 50.80 49.73 49.33 49.47 49.59
40.15 46.23 49.34 50.24 49.51 48.81 47.73 46.89 46.50 46.68 46.20 45.27 44.80 44.53 44.29 44.31 43.98 44.67 45.53 46.28 47.47 48.09 48.50 49.06 49.67 50.10 50.13 50.61 49.57 49.03 48.97 49.49
40.71 45.58 47.78 48.31 48.08 48.55 47.51 46.71 46.62 46.84 45.90 45.20 44.67 43.93 43.70 43.54 43.88 44.73 45.25 46.06 47.45 47.58 48.36 48.84 49.40 49.89 49.76 49.91 49.35 48.61 48.41 48.97
39.35 42.70 44.97 46.18 46.78 46.89 46.83 45.99 45.55 45.22 45.00 43.83 43.77 43.82 43.42 43.28 43.70 44.64 44.99 45.67 46.76 47.21 47.86 48.56 49.26 49.80 49.86 50.00 49.74 49.29 48.85 48.93
39.06 39.83 42.09 44.33 45.71 45.64 45.22 44.43 44.33 44.76 44.59 43.96 43.50 43.66 43.25 43.42 43.80 44.29 44.97 45.22 46.21 46.94 47.51 48.19 49.32 49.78 50.11 49.56 50.84 50.25 49.17 49.23
39.06 39.91 40.49 41.69 43.21 43.51 43.45 43.39 44.00 43.79 43.69 43.32 43.44 43.13 42.61 42.83 43.15 43.64 44.34 44.93 45.86 46.23 47.05 47.49 48.74 49.30 50.25 49.60 49.75 50.19 49.19 49.03
38.44 39.19 40.32 40.55 41.24 41.80 41.42 41.63 42.95 42.72 42.93 42.14 41.94 41.88 42.08 41.89 42.25 42.70 43.31 43.87 44.84 45.33 46.30 46.56 47.10 44.09 44.21 46.86 48.45 49.59 49.34 48.39
38.59 39.23 40.27 41.23 41.84 41.35 41.06 40.33 41.08 41.51 40.28 40.73 41.22 41.49 41.72 41.68 41.81 41.92 42.39 42.71 43.51 44.37 45.51 45.90 46.71 42.26 42.72 42.73 48.09 48.56 49.19 48.63
36.45 38.35 39.31 40.45 40.89 41.18 40.69 40.74 40.46 40.15 39.79 40.15 40.47 40.58 40.42 40.82 41.34 41.27 41.85 42.65 42.76 43.20 44.31 45.24 45.22 41.04 42.08 41.16 47.85 47.94 48.73 48.07
36.89 36.43 38.03 39.81 40.60 40.66 39.48 39.29 39.19 39.39 39.45 39.62 40.58 39.28 39.44 40.08 40.32 41.07 40.89 40.93 41.89 42.14 42.96 44.23 44.36 40.44 41.26 44.70 47.12 45.43 45.86 46.65
36.34 35.58 36.79 38.47 39.60 39.42 38.65 38.83 39.17 39.34 39.63 39.62 39.92 39.90 40.00 40.24 39.75 38.39 41.38 40.60 40.33 39.84 42.50 39.34 43.52 39.47 40.45 45.28 45.99 44.74 43.59 43.69
35.22 35.96 35.92 37.07 38.54 37.42 36.91 37.71 38.95 37.03 36.85 38.04 39.12 39.44 40.38 39.94 37.71 39.36 37.96 38.30 38.18 37.69 38.75 39.58 41.27 41.19 40.94 41.76 44.80 44.47 40.69 39.76
35.23 34.93 34.67 35.58 37.48 36.59 36.32 36.95 36.46 35.72 35.54 35.51 36.21 38.08 38.57 38.44 36.30 36.60 37.60 37.24 36.39 36.45 35.63 35.55 37.69 37.90 39.86 40.77 43.09 43.51 41.78 38.82
34.25 33.84 31.82 31.18 35.45 35.51 34.51 34.30 33.42 33.93 34.56 34.48 34.44 35.08 35.93 37.30 36.16 36.32 36.64 37.78 36.45 36.74 36.77 35.19 34.71 37.06 39.04 39.84 40.69 40.93 39.52 36.71
29.27 29.00 29.95 28.31 31.07 33.45 32.09 32.93 33.18 33.44 33.05 33.62 34.87 34.02 34.35 35.58 36.84 37.45 37.01 37.00 36.34 36.54 37.34 36.34 35.53 36.31 36.68 36.14 39.37 36.16 36.49 36.34
28.52 29.67 29.38 29.21 29.52 28.22 31.24 32.58 33.48 33.11 32.78 33.54 34.75 34.82 34.76 35.91 36.37 37.13 38.13 38.89 37.23 37.81 38.40 37.18 36.09 37.58 37.43 37.17 37.59 37.44 36.45 34.36
27.29 27.65 29.36 29.31 28.10 26.62 30.22 32.73 33.30 33.23 32.85 33.74 34.38 34.42 35.15 34.53 33.54 35.87 36.71 37.76 38.32 38.80 38.76 36.85 39.13 38.14 37.94 38.69 38.71 38.15 37.23 34.00
30.34 27.55 27.15 27.87 26.89 26.93 28.66 31.88 33.09 34.09 33.24 33.27 33.29 34.50 34.48 34.51 34.81 34.32 34.32 37.38 37.72 37.91 38.02 38.26 37.66 37.89 38.70 38.84 38.48 37.92 38.02 34.56
28.40 27.66 27.92 26.68 29.18 29.24 28.66 31.85 33.05 33.06 32.09 33.82 34.69 34.66 34.84 35.17 35.42 35.57 35.39 35.07 35.28 37.04 37.32 37.45 37.43 37.71 38.22 38.61 37.61 34.74 34.71 33.83
22.21 28.25 28.98 27.40 30.88 28.38 28.74 30.77 32.00 33.20 33.59 34.21 34.24 34.54 34.84 34.79 34.79 35.98 36.18 35.82 35.46 34.37 35.86 35.04 36.87 37.38 38.01 38.19 36.73 34.92 34.37 34.19
MSLP
1004.84 1005.37 1005.80 1006.33 1007.06 1007.94 1008.80 1009.55 1010.49 1011.61 1012.63 1013.58 1014.41 1015.12 1015.82 1016.66 1017.41 1018.11 1018.75 1019.30 1019.99 1020.34 1020.56 1020.90 1021.02 1021.18 1021.33 1021.63 1021.74 1021.85 1022.36 1022.56
1005.23 1005.62 1005.99 1006.50 1007.26 1007.97 1008.75 1009.59 1010.44 1011.30 1012.25 1013.19 1014.09 1014.87 1015.61 1016.41 1017.16 1017.78 1018.49 1019.06 1019.70 1020.22 1020.50 1020.84 1021.09 1021.22 1021.47 1021.75 1021.99 1022.08 1022.56 1022.87
1005.66 1005.96 1006.13 1006.64 1007.39 1007.93 1008.78 1009.48 1010.13 1010.85 1011.89 1012.93 1013.89 1014.72 1015.46 1016.14 1016.86 1017.53 1018.29 1018.87 1019.31 1019.96 1020.43 1020.80 1021.10 1021.40 1021.54 1021.81 1022.11 1022.31 1022.70 1023.10
1006.39 1006.58 1006.79 1007.12 1007.60 1008.15 1008.89 1009.60 1010.21 1010.99 1011.86 1012.86 1013.76 1014.49 1015.27 1016.01 1016.76 1017.42 1018.03 1018.73 1019.28 1019.85 1020.35 1020.73 1021.07 1021.36 1021.63 1021.82 1022.21 1022.49 1022.87 1023.23
1006.73 1006.94 1007.27 1007.59 1007.92 1008.27 1008.94 1009.68 1010.37 1011.10 1011.83 1012.57 1013.32 1014.13 1014.97 1015.79 1016.58 1017.18 1017.81 1018.49 1019.14 1019.68 1020.19 1020.64 1021.07 1021.33 1021.59 1021.78 1022.18 1022.54 1023.00 1023.36
1006.94 1007.23 1007.57 1007.88 1008.24 1008.77 1009.25 1009.69 1010.29 1011.00 1011.73 1012.39 1013.13 1013.95 1014.81 1015.67 1016.47 1017.09 1017.65 1018.22 1018.80 1019.46 1020.11 1020.53 1020.87 1021.21 1021.50 1021.74 1022.07 1022.59 1023.11 1023.55
1006.73 1007.21 1007.60 1007.89 1008.23 1008.79 1009.34 1009.89 1010.42 1011.01 1011.58 1012.24 1013.04 1013.85 1014.68 1015.55 1016.34 1016.98 1017.55 1018.10 1018.74 1019.35 1019.85 1020.41 1020.78 1021.12 1021.47 1021.77 1022.15 1022.61 1023.02 1023.58
1006.75 1007.15 1007.48 1007.72 1008.00 1008.60 1009.14 1009.84 1010.53 1011.01 1011.53 1012.20 1012.94 1013.63 1014.29 1015.03 1015.88 1016.69 1017.30 1017.92 1018.61 1019.20 1019.68 1020.33 1020.71 1021.06 1021.46 1021.65 1022.27 1022.69 1023.03 1023.40
1006.49 1006.90 1007.21 1007.49 1007.91 1008.41 1009.12 1009.75 1010.38 1011.03 1011.60 1012.17 1012.81 1013.48 1014.19 1014.84 1015.54 1016.29 1016.94 1017.57 1018.25 1018.89 1019.50 1020.14 1020.61 1020.93 1021.41 1021.75 1022.24 1022.60 1022.93 1023.29
1006.11 1006.63 1006.94 1007.38 1007.80 1008.25 1009.07 1009.75 1010.31 1010.90 1011.38 1011.95 1012.50 1013.16 1013.99 1014.80 1015.27 1015.87 1016.58 1017.48 1018.02 1018.54 1019.28 1019.82 1020.41 1020.70 1021.26 1021.72 1022.15 1022.56 1022.90 1023.27
1006.14 1006.76 1007.10 1007.40 1007.84 1008.37 1008.86 1009.49 1009.99 1010.52 1011.01 1011.60 1012.23 1012.89 1013.57 1014.28 1015.01 1015.69 1016.27 1017.04 1017.81 1018.50 1018.87 1019.36 1020.12 1020.68 1021.16 1021.56 1021.95 1022.48 1022.95 1023.37
1006.31 1006.76 1007.08 1007.25 1007.83 1008.37 1008.90 1009.43 1009.84 1010.41 1010.86 1011.38 1011.95 1012.53 1013.17 1014.04 1014.75 1015.35 1016.20 1017.02 1017.78 1018.43 1018.77 1019.27 1019.86 1020.60 1021.11 1021.51 1021.78 1022.19 1022.93 1023.40
1006.55 1006.96 1007.25 1007.53 1007.88 1008.20 1008.65 1008.96 1009.66 1010.21 1010.82 1011.37 1011.95 1012.40 1013.03 1013.67 1014.61 1015.21 1015.97 1016.85 1017.60 1018.31 1018.99 1019.38 1019.79 1020.31 1020.96 1021.37 1021.68 1022.06 1022.72 1023.32
1007.31 1007.48 1007.54 1007.73 1008.07 1008.39 1008.92 1009.05 1009.44 1010.09 1010.63 1011.11 1011.71 1012.21 1012.75 1013.46 1014.20 1015.11 1015.59 1016.32 1017.17 1017.96 1018.60 1019.29 1019.73 1020.08 1020.61 1021.15 1021.46 1021.69 1022.46 1023.00
1007.96 1008.05 1008.14 1007.95 1008.10 1008.58 1008.70 1008.93 1009.45 1010.00 1010.52 1011.02 1011.52 1012.04 1012.59 1013.14 1013.67 1014.26 1014.88 1015.48 1016.29 1017.16 1017.90 1018.69 1019.40 1019.74 1020.13 1020.66 1021.17 1021.55 1022.18 1022.81
1008.15 1008.18 1008.49 1008.19 1008.20 1008.16 1008.08 1008.49 1009.19 1009.73 1010.28 1010.87 1011.17 1011.51 1012.03 1012.46 1012.82 1013.31 1013.65 1013.96 1014.94 1015.87 1016.69 1017.55 1018.32 1018.48 1019.04 1019.79 1020.46 1021.03 1021.62 1022.46
1007.84 1008.16 1008.58 1008.37 1008.15 1007.43 1007.77 1008.28 1008.79 1009.49 1009.94 1010.31 1010.86 1011.15 1011.53 1012.09 1012.72 1012.98 1013.26 1013.71 1014.17 1014.59 1015.05 1016.32 1016.98 1017.78 1018.62 1019.21 1019.76 1020.37 1021.10 1022.02
1007.39 1007.51 1007.77 1007.99 1007.68 1007.64 1007.81 1007.86 1008.33 1008.77 1009.39 1010.00 1010.31 1010.58 1011.00 1011.64 1012.08 1012.81 1013.42 1013.57 1014.03 1014.48 1015.05 1015.67 1016.22 1017.25 1018.02 1018.67 1019.31 1019.98 1020.69 1021.29
1006.95 1007.13 1006.99 1007.33 1007.49 1007.49 1007.59 1007.84 1007.79 1008.08 1008.58 1009.12 1009.50 1009.93 1010.47 1010.94 1011.51 1011.90 1012.53 1013.18 1013.87 1014.45 1014.82 1015.40 1015.89 1016.65 1017.50 1018.18 1019.10 1020.18 1020.40 1020.87
1006.65 1006.51 1006.75 1006.95 1006.42 1006.99 1006.98 1007.15 1007.37 1007.59 1007.65 1008.08 1008.77 1009.45 1009.93 1010.45 1011.08 1011.69 1012.12 1012.68 1013.42 1014.24 1014.88 1015.37 1015.87 1016.62 1017.31 1017.66 1018.37 1019.22 1019.85 1020.37
Wind_Speed
6 7 9 11 14 12 13 15 15 15 13 12 13 11 10 9 9 9 7 6 7 6 6 5 4 3 4 4 4 7 4 5
5 7 12 11 11 11 12 14 14 14 13 13 11 11 10 9 8 9 8 8 7 6 6 6 5 4 5 5 5 7 7 6
6 10 12 12 12 13 11 12 13 13 12 12 11 10 10 9 9 9 9 8 8 7 6 6 6 5 5 5 5 7 7 7
6 8 10 10 9 11 10 10 10 11 12 11 11 11 10 9 9 9 10 8 7 7 7 6 6 6 5 5 6 6 7 7
5 5 7 7 7 8 9 9 10 10 11 12 12 12 10 9 10 10 9 10 8 7 6 6 5 5 6 6 6 6 7 6
6 5 5 7 6 6 7 9 10 11 11 11 10 10 10 9 9 9 9 9 9 8 6 6 5 4 6 5 6 6 7 6
6 6 6 6 6 6 7 8 9 9 10 9 11 11 10 10 10 9 9 9 8 8 8 7 4 8 8 7 5 6 7 7
5 6 6 7 7 8 8 7 7 8 8 9 10 11 12 11 11 10 10 9 9 8 8 7 5 9 9 10 5 5 5 7
5 4 5 5 7 7 7 8 8 7 8 8 10 10 10 11 11 10 9 11 9 8 7 7 5 11 11 10 6 5 6 6
3 3 4 6 6 8 8 7 7 8 9 9 10 11 11 11 11 9 9 7 8 7 9 8 6 11 11 9 6 5 6 5
4 3 4 5 6 7 8 9 10 10 10 9 10 11 12 12 11 5 8 8 7 7 8 7 7 11 9 8 5 5 4 4
3 3 3 6 7 7 6 8 6 6 7 9 9 11 11 10 5 9 7 8 7 7 6 6 6 9 13 8 5 5 4 4
4 3 2 4 6 7 7 6 7 7 8 8 8 8 8 11 7 7 9 9 8 7 4 2 5 8 10 9 6 8 5 4
4 2 2 1 4 5 2 6 6 7 8 8 8 8 8 11 10 8 9 9 8 8 7 5 4 4 11 11 9 10 5 3
3 2 2 3 4 5 5 6 6 6 6 7 10 8 7 6 8 9 10 9 9 9 8 7 6 6 5 5 6 8 6 7
4 4 4 4 6 5 5 6 6 5 6 7 7 11 10 9 9 10 9 12 12 10 11 12 10 9 11 11 8 6 8 8
5 5 6 7 7 3 6 7 7 6 6 7 7 7 8 8 4 1 6 13 14 16 14 7 9 18 19 18 17 17 18 4
9 6 4 4 4 4 4 7 8 8 7 6 6 8 9 8 9 9 2 10 11 15 15 18 17 24 24 20 18 19 12 4
5 5 6 4 9 7 7 7 9 8 9 8 7 8 8 9 8 8 10 10 7 10 14 16 19 20 22 21 15 8 2 3
4 7 6 6 13 6 7 8 8 7 7 7 7 7 7 7 8 8 9 9 8 5 5 10 14 14 18 21 8 8 7 5
Wind_Direction
160 154 161 168 172 160 166 166 162 162 162 164 167 168 164 161 168 164 158 151 155 156 156 157 148 143 120 102 103 107 110 114
143 138 160 164 163 158 155 157 161 161 161 161 165 163 158 164 163 165 155 159 159 158 155 153 152 154 126 114 124 119 125 121
124 150 160 163 170 165 157 161 167 164 160 161 155 155 161 162 163 154 159 163 161 157 153 154 151 153 146 136 134 134 138 134
117 141 159 162 161 169 158 160 153 150 150 147 158 164 166 160 158 158 154 159 154 152 161 155 157 155 157 146 144 144 148 149
116 136 154 169 164 156 153 149 149 151 156 160 164 166 163 157 158 159 158 155 158 163 159 154 158 157 159 152 146 141 150 152
139 148 156 163 152 145 147 149 155 156 159 164 158 154 149 150 153 151 157 162 160 154 149 159 164 161 163 154 145 136 145 150
137 152 165 169 161 153 152 153 153 159 166 154 152 150 154 150 155 156 157 154 154 159 159 166 165 170 156 147 145 145 146 149
170 184 180 180 165 168 155 136 152 159 153 154 155 158 163 159 156 160 161 152 167 167 162 166 165 168 156 149 149 150 146 151
165 184 198 177 165 140 147 160 159 159 159 157 159 163 161 158 165 159 160 168 168 164 163 160 168 176 155 157 151 156 154 158
155 169 162 170 165 149 151 155 156 170 169 169 168 159 159 168 166 165 152 157 163 164 163 166 176 179 164 153 148 157 161 151
78 107 140 173 157 153 166 166 185 181 178 167 167 168 172 171 164 149 161 163 152 159 173 164 158 173 165 163 148 150 148 147
74 89 130 159 155 177 156 195 184 161 157 165 170 168 169 162 157 155 148 146 154 161 165 160 158 174 184 180 155 154 143 154
65 9 28 141 163 188 198 173 166 163 166 169 167 165 164 160 153 147 151 155 162 154 141 139 161 155 183 183 154 149 149 176
120 74 4 167 199 221 200 163 160 163 180 174 162 164 162 165 162 158 162 167 165 170 167 162 162 157 168 186 165 157 137 159
149 170 258 258 215 201 175 157 160 174 170 169 172 166 160 165 171 171 176 173 168 172 174 166 168 169 164 169 173 131 117 129
234 211 237 227 226 210 185 159 171 169 162 181 184 179 174 183 181 186 193 181 171 180 176 174 184 191 169 167 167 160 148 122
245 243 203 216 258 228 176 174 168 177 179 181 183 180 176 172 159 82 171 188 188 176 174 176 159 155 166 172 168 154 147 107
248 246 187 242 241 248 205 172 180 187 173 174 176 179 176 180 181 179 91 165 167 172 164 168 165 170 176 169 160 157 142 149
192 237 252 242 245 209 189 194 191 180 171 174 182 179 181 182 189 173 172 173 171 173 168 168 166 170 175 159 136 157 108 167
204 233 228 241 264 183 183 188 189 186 177 172 168 177 177 173 171 176 173 172 167 140 147 165 164 171 171 158 166 171 180 177